Location: Unnamed
(25.2826°S, 57.6099°W)
Time: 08:18:18
(UTC-04:00)

Tiangong - Visible Passes

Search period start: 16 January 2026 00:00
Search period end: 26 January 2026 00:00
Orbit: 378 x 394 km, 41.5° (Epoch: 16 January)

Date Brightness Start Highest point End Pass type
(mag) Time Alt. Az. Time Alt. Az. Time Alt. Az.
21 Jan 0.8 20:50:38 10° S 20:51:31 13° S 20:51:31 13° S visible
23 Jan -0.2 20:28:00 10° SSW 20:30:14 23° SSE 20:30:14 23° SSE visible
24 Jan 0.4 19:29:13 10° SSW 19:31:05 14° SSE 19:32:57 10° ESE visible
24 Jan 1.0 21:05:01 10° WSW 21:05:44 16° WSW 21:05:44 16° WSW visible
25 Jan -1.7 20:05:38 10° SW 20:08:45 50° SSE 20:09:03 47° ESE visible
